This is the latest recevied weather packets stored in our database for station/object AD8BV. If no packets are shown the sender has not sent any weather packets the latest 10 day(s).
| Time | Temp. | Humidity | Pressure | Rain* | Wind** | Luminosity | Snow |
|---|---|---|---|---|---|---|---|
| 1777602472 | 7.22° C | 69% | 1017 hPa | 0 mm | - | 0 W/m² | - |
| 1777602168 | 7.22° C | 69% | 1016.9 hPa | 0 mm | - | 0 W/m² | - |
| 1777601863 | 7.22° C | 67% | 1016.9 hPa | 0 mm | - | 0 W/m² | - |
| 1777601559 | 7.78° C | 66% | 1017 hPa | 0 mm | - | 0 W/m² | - |
| 1777601254 | 7.78° C | 65% | 1016.6 hPa | 0 mm | - | 0 W/m² | - |
| 1777600952 | 7.78° C | 62% | 1016.9 hPa | 0 mm | - | 0 W/m² | - |
| 1777600647 | 7.78° C | 62% | 1017 hPa | 0 mm | - | 0 W/m² | - |
| 1777600344 | 7.78° C | 63% | 1016.6 hPa | 0 mm | - | 0 W/m² | - |
| 1777600040 | 7.78° C | 60% | 1016.5 hPa | 0 mm | - | 0 W/m² | - |
| 1777599736 | 8.33° C | 59% | 1016.6 hPa | 0 mm | - | 0 W/m² | - |
| 1777599432 | 8.33° C | 59% | 1016.4 hPa | 0 mm | - | 0 W/m² | - |
| 1777599129 | 7.78° C | 62% | 1016.4 hPa | 0 mm | - | 0 W/m² | - |
| 1777598828 | 7.78° C | 60% | 1016.2 hPa | 0 mm | - | 0 W/m² | - |
| 1777598523 | 8.33° C | 59% | 1016.1 hPa | 0 mm | - | 0 W/m² | - |
| 1777598222 | 8.33° C | 62% | 1016.2 hPa | 0 mm | - | 0 W/m² | - |
| 1777597921 | 8.33° C | 59% | 1016.3 hPa | 0 mm | - | 0 W/m² | - |
| 1777597615 | 8.33° C | 59% | 1016.2 hPa | 0 mm | - | 0 W/m² | - |
| 1777597311 | 8.33° C | 58% | 1016.1 hPa | 0 mm | - | 0 W/m² | - |
| 1777597006 | 8.33° C | 57% | 1016.2 hPa | 0 mm | - | 0 W/m² | - |
| 1777596703 | 8.33° C | 56% | 1016.1 hPa | 0 mm | - | 0 W/m² | - |
| 1777596401 | 8.33° C | 56% | 1015.9 hPa | 0 mm | - | 0 W/m² | - |
| 1777596097 | 8.33° C | 56% | 1016.2 hPa | 0 mm | - | 0 W/m² | - |
| 1777595793 | 8.33° C | 56% | 1015.9 hPa | 0 mm | - | 0 W/m² | - |
| 1777595488 | 8.33° C | 55% | 1016 hPa | 0 mm | - | 0 W/m² | - |
| 1777595185 | 8.33° C | 55% | 1016.1 hPa | 0 mm | - | 1 W/m² | - |
* Rain latest hour (hover to see other rain measurements)
** Current wind speed in m/s (hover to see current wind gust speed)